Time,TemperatureF,DewpointF,PressureIn,WindDirection,WindDirectionDegrees,WindSpeedMPH,WindSpeedGustMPH,Humidity,HourlyPrecipIn,Conditions,Clouds,dailyrainin,SoftwareType,DateUTC
2013-12-15 00:05:00,43.6,29.8,30.40,SSE,153,0.0,0.0,58,0.00,,,0.00,Wunderground v.1.15,2013-12-15 08:05:00,
2013-12-15 00:10:00,43.5,29.7,30.40,SSE,153,0.0,0.0,58,0.00,,,0.00,Wunderground v.1.15,2013-12-15 08:10:00,
2013-12-15 00:15:00,43.2,29.0,30.40,SSE,153,0.0,0.0,57,0.00,,,0.00,Wunderground v.1.15,2013-12-15 08:15:00,
2013-12-15 00:25:00,42.8,29.9,30.40,SSE,153,0.0,0.0,60,0.00,,,0.00,Wunderground v.1.15,2013-12-15 08:25:00,
2013-12-15 00:30:00,42.7,29.8,30.40,SSE,153,0.0,0.0,60,0.00,,,0.00,Wunderground v.1.15,2013-12-15 08:30:00,
2013-12-15 00:35:00,42.7,29.8,30.40,SSE,153,0.0,0.0,60,0.00,,,0.00,Wunderground v.1.15,2013-12-15 08:35:00,
2013-12-15 00:40:00,42.6,29.7,30.40,SSE,153,0.0,0.0,60,0.00,,,0.00,Wunderground v.1.15,2013-12-15 08:40:00,
2013-12-15 00:50:00,42.5,30.0,30.39,SSE,153,0.0,0.0,61,0.00,,,0.00,Wunderground v.1.15,2013-12-15 08:50:00,
2013-12-15 00:55:00,42.4,29.9,30.39,SSE,153,0.0,0.0,61,0.00,,,0.00,Wunderground v.1.15,2013-12-15 08:55:00,
2013-12-15 01:00:00,42.5,30.0,30.39,SSE,153,0.0,0.0,61,0.00,,,0.00,Wunderground v.1.15,2013-12-15 09:00:00,
2013-12-15 01:05:00,42.9,30.0,30.39,SSE,153,0.0,0.0,60,0.00,,,0.00,Wunderground v.1.15,2013-12-15 09:05:00,
2013-12-15 01:15:00,42.9,30.8,30.39,SSE,153,0.0,0.0,62,0.00,,,0.00,Wunderground v.1.15,2013-12-15 09:15:00,
2013-12-15 01:20:00,42.7,31.0,30.39,SSE,153,0.0,0.0,63,0.00,,,0.00,Wunderground v.1.15,2013-12-15 09:20:00,
2013-12-15 01:25:00,42.7,31.4,30.39,SSE,153,0.0,0.0,64,0.00,,,0.00,Wunderground v.1.15,2013-12-15 09:25:00,
2013-12-15 01:30:00,42.7,31.7,30.39,SSE,153,0.0,0.0,65,0.00,,,0.00,Wunderground v.1.15,2013-12-15 09:30:00,
2013-12-15 01:40:00,42.5,31.6,30.38,SSE,153,0.0,0.0,65,0.00,,,0.00,Wunderground v.1.15,2013-12-15 09:40:00,
2013-12-15 01:45:00,42.4,31.5,30.38,SSE,153,0.0,0.0,65,0.00,,,0.00,Wunderground v.1.15,2013-12-15 09:45:00,
2013-12-15 01:50:00,42.4,31.5,30.38,SSE,153,0.0,0.0,65,0.00,,,0.00,Wunderground v.1.15,2013-12-15 09:50:00,
2013-12-15 02:00:00,42.5,31.6,30.38,SSE,153,0.0,0.0,65,0.00,,,0.00,Wunderground v.1.15,2013-12-15 10:00:00,
2013-12-15 02:05:00,42.6,31.7,30.38,SSE,153,0.0,0.0,65,0.00,,,0.00,Wunderground v.1.15,2013-12-15 10:05:00,
2013-12-15 02:10:00,42.4,31.5,30.38,SSE,153,0.0,0.0,65,0.00,,,0.00,Wunderground v.1.15,2013-12-15 10:10:00,
2013-12-15 02:15:00,42.0,31.8,30.38,SSE,153,0.0,0.0,67,0.00,,,0.00,Wunderground v.1.15,2013-12-15 10:15:00,
2013-12-15 02:20:00,42.0,32.2,30.38,SSE,153,0.0,0.0,68,0.00,,,0.00,Wunderground v.1.15,2013-12-15 10:20:00,
2013-12-15 02:25:00,41.8,32.0,30.38,SSE,153,0.0,0.0,68,0.00,,,0.00,Wunderground v.1.15,2013-12-15 10:25:00,
2013-12-15 02:30:00,41.6,32.2,30.38,SSE,153,0.0,0.0,69,0.00,,,0.00,Wunderground v.1.15,2013-12-15 10:30:00,
2013-12-15 02:40:00,41.5,32.4,30.38,SSE,153,0.0,0.0,70,0.00,,,0.00,Wunderground v.1.15,2013-12-15 10:40:00,
2013-12-15 02:45:00,41.8,33.1,30.37,SSE,153,0.0,0.0,71,0.00,,,0.00,Wunderground v.1.15,2013-12-15 10:45:00,
2013-12-15 02:50:00,42.0,32.9,30.37,SSE,153,0.0,0.0,70,0.00,,,0.00,Wunderground v.1.15,2013-12-15 10:50:00,
2013-12-15 02:55:00,42.2,33.1,30.37,SSE,153,0.0,0.0,70,0.00,,,0.00,Wunderground v.1.15,2013-12-15 10:55:00,
2013-12-15 03:05:00,42.1,33.4,30.37,SSE,153,0.0,0.0,71,0.00,,,0.00,Wunderground v.1.15,2013-12-15 11:05:00,
2013-12-15 03:10:00,42.2,33.5,30.37,SSE,153,0.0,0.0,71,0.00,,,0.00,Wunderground v.1.15,2013-12-15 11:10:00,
2013-12-15 03:15:00,42.3,33.6,30.37,SSE,153,0.0,0.0,71,0.00,,,0.00,Wunderground v.1.15,2013-12-15 11:15:00,
2013-12-15 03:20:00,42.3,33.6,30.37,SSE,153,0.0,0.0,71,0.00,,,0.00,Wunderground v.1.15,2013-12-15 11:20:00,
2013-12-15 03:30:00,42.3,33.6,30.38,SSE,153,0.0,1.0,71,0.00,,,0.00,Wunderground v.1.15,2013-12-15 11:30:00,
2013-12-15 03:40:00,42.2,33.8,30.38,SSE,153,0.0,1.0,72,0.00,,,0.00,Wunderground v.1.15,2013-12-15 11:40:00,
2013-12-15 03:45:00,42.1,33.7,30.38,SSE,153,0.0,1.0,72,0.00,,,0.00,Wunderground v.1.15,2013-12-15 11:45:00,
2013-12-15 03:50:00,42.2,33.8,30.37,SSE,153,0.0,1.0,72,0.00,,,0.00,Wunderground v.1.15,2013-12-15 11:50:00,
2013-12-15 03:55:00,42.1,33.7,30.37,SSE,153,0.0,1.0,72,0.00,,,0.00,Wunderground v.1.15,2013-12-15 11:55:00,
2013-12-15 04:05:00,42.1,33.7,30.37,SSE,153,0.0,1.0,72,0.00,,,0.00,Wunderground v.1.15,2013-12-15 12:05:00,
2013-12-15 04:10:00,42.2,33.8,30.37,SSE,153,0.0,1.0,72,0.00,,,0.00,Wunderground v.1.15,2013-12-15 12:10:00,
2013-12-15 04:15:00,42.3,33.6,30.37,SSE,153,0.0,1.0,71,0.00,,,0.00,Wunderground v.1.15,2013-12-15 12:15:00,
2013-12-15 04:20:00,42.3,33.9,30.37,SSE,153,0.0,0.0,72,0.00,,,0.00,Wunderground v.1.15,2013-12-15 12:20:00,
2013-12-15 04:30:00,42.1,33.7,30.37,SSE,153,0.0,0.0,72,0.00,,,0.00,Wunderground v.1.15,2013-12-15 12:30:00,
2013-12-15 04:35:00,42.2,33.8,30.37,SSE,153,0.0,0.0,72,0.00,,,0.00,Wunderground v.1.15,2013-12-15 12:35:00,
2013-12-15 04:45:00,42.3,33.9,30.37,SSE,153,0.0,0.0,72,0.00,,,0.00,Wunderground v.1.15,2013-12-15 12:45:00,
2013-12-15 04:50:00,42.3,33.9,30.37,SSE,153,0.0,1.0,72,0.00,,,0.00,Wunderground v.1.15,2013-12-15 12:50:00,
2013-12-15 04:55:00,42.3,34.3,30.37,SSE,153,0.0,1.0,73,0.00,,,0.00,Wunderground v.1.15,2013-12-15 12:55:00,
2013-12-15 05:00:00,42.2,34.2,30.37,SSE,153,0.0,0.0,73,0.00,,,0.00,Wunderground v.1.15,2013-12-15 13:00:00,
2013-12-15 05:05:00,42.0,34.0,30.37,SSE,153,0.0,1.0,73,0.00,,,0.00,Wunderground v.1.15,2013-12-15 13:05:00,
2013-12-15 05:15:00,41.7,34.0,30.37,SSE,153,0.0,1.0,74,0.00,,,0.00,Wunderground v.1.15,2013-12-15 13:15:00,
2013-12-15 05:20:00,41.6,34.3,30.37,SSE,153,0.0,1.0,75,0.00,,,0.00,Wunderground v.1.15,2013-12-15 13:20:00,
2013-12-15 05:25:00,41.6,34.3,30.37,SSE,153,0.0,1.0,75,0.00,,,0.00,Wunderground v.1.15,2013-12-15 13:25:00,
2013-12-15 05:30:00,41.8,34.5,30.37,SSE,153,0.0,1.0,75,0.00,,,0.00,Wunderground v.1.15,2013-12-15 13:30:00,
2013-12-15 05:40:00,42.1,34.4,30.37,SSE,153,0.0,0.0,74,0.00,,,0.00,Wunderground v.1.15,2013-12-15 13:40:00,
2013-12-15 05:45:00,42.1,34.4,30.37,SSE,153,0.0,0.0,74,0.00,,,0.00,Wunderground v.1.15,2013-12-15 13:45:00,
2013-12-15 05:50:00,42.3,34.6,30.37,SSE,153,0.0,0.0,74,0.00,,,0.00,Wunderground v.1.15,2013-12-15 13:50:00,
2013-12-15 05:55:00,42.4,34.4,30.37,SSE,153,0.0,0.0,73,0.00,,,0.00,Wunderground v.1.15,2013-12-15 13:55:00,
2013-12-15 06:05:00,42.2,34.5,30.37,SSE,153,0.0,1.0,74,0.00,,,0.00,Wunderground v.1.15,2013-12-15 14:05:00,
2013-12-15 06:10:00,42.2,34.5,30.37,SSE,153,0.0,0.0,74,0.00,,,0.00,Wunderground v.1.15,2013-12-15 14:10:00,
2013-12-15 06:15:00,42.2,34.5,30.37,SSE,153,0.0,0.0,74,0.00,,,0.00,Wunderground v.1.15,2013-12-15 14:15:00,
2013-12-15 06:20:00,42.1,34.4,30.37,SSE,153,0.0,0.0,74,0.00,,,0.00,Wunderground v.1.15,2013-12-15 14:20:00,
2013-12-15 06:30:00,41.7,34.4,30.37,SSE,153,0.0,0.0,75,0.00,,,0.00,Wunderground v.1.15,2013-12-15 14:30:00,
2013-12-15 06:35:00,41.6,34.3,30.37,SSE,153,0.0,1.0,75,0.00,,,0.00,Wunderground v.1.15,2013-12-15 14:35:00,
2013-12-15 06:40:00,41.6,34.3,30.37,SSE,153,0.0,0.0,75,0.00,,,0.00,Wunderground v.1.15,2013-12-15 14:40:00,
2013-12-15 06:45:00,41.6,34.3,30.37,SSE,153,0.0,0.0,75,0.00,,,0.00,Wunderground v.1.15,2013-12-15 14:45:00,
2013-12-15 06:50:00,41.6,34.3,30.37,SSE,153,0.0,0.0,75,0.00,,,0.00,Wunderground v.1.15,2013-12-15 14:50:00,
2013-12-15 06:55:00,41.6,34.6,30.37,SSE,153,0.0,0.0,76,0.00,,,0.00,Wunderground v.1.15,2013-12-15 14:55:00,
2013-12-15 07:05:00,41.5,34.2,30.37,SSE,153,0.0,1.0,75,0.00,,,0.00,Wunderground v.1.15,2013-12-15 15:05:00,
2013-12-15 07:10:00,41.6,34.6,30.37,SSE,153,0.0,0.0,76,0.00,,,0.00,Wunderground v.1.15,2013-12-15 15:10:00,
2013-12-15 07:15:00,41.7,34.4,30.37,SSE,153,0.0,0.0,75,0.00,,,0.00,Wunderground v.1.15,2013-12-15 15:15:00,
2013-12-15 07:20:00,41.9,34.6,30.37,SSE,153,0.0,1.0,75,0.00,,,0.00,Wunderground v.1.15,2013-12-15 15:20:00,
2013-12-15 07:25:00,41.9,34.6,30.37,SSE,153,0.0,1.0,75,0.00,,,0.00,Wunderground v.1.15,2013-12-15 15:25:00,
2013-12-15 07:35:00,42.3,34.6,30.37,SSE,153,0.0,1.0,74,0.00,,,0.00,Wunderground v.1.15,2013-12-15 15:35:00,
2013-12-15 07:40:00,42.6,34.5,30.37,SSE,153,0.0,0.0,73,0.00,,,0.00,Wunderground v.1.15,2013-12-15 15:40:00,
2013-12-15 07:50:00,43.4,35.0,30.37,SSE,153,0.0,0.0,72,0.00,,,0.00,Wunderground v.1.15,2013-12-15 15:50:00,
2013-12-15 07:55:00,43.8,35.0,30.37,SSE,153,0.0,0.0,71,0.00,,,0.00,Wunderground v.1.15,2013-12-15 15:55:00,
2013-12-15 08:00:00,44.2,35.0,30.37,SSE,153,0.0,0.0,70,0.00,,,0.00,Wunderground v.1.15,2013-12-15 16:00:00,
2013-12-15 08:05:00,44.6,35.1,30.37,SSE,153,0.0,0.0,69,0.00,,,0.00,Wunderground v.1.15,2013-12-15 16:05:00,
2013-12-15 08:10:00,45.2,35.6,30.37,SSE,153,0.0,0.0,69,0.00,,,0.00,Wunderground v.1.15,2013-12-15 16:10:00,
2013-12-15 08:15:00,45.8,36.6,30.37,SSE,153,0.0,0.0,70,0.00,,,0.00,Wunderground v.1.15,2013-12-15 16:15:00,
2013-12-15 08:20:00,46.5,36.9,30.38,SSE,153,0.0,0.0,69,0.00,,,0.00,Wunderground v.1.15,2013-12-15 16:20:00,
2013-12-15 08:25:00,47.2,36.8,30.38,SSE,153,0.0,0.0,67,0.00,,,0.00,Wunderground v.1.15,2013-12-15 16:25:00,
2013-12-15 08:30:00,47.7,36.5,30.38,SSE,153,0.0,0.0,65,0.00,,,0.00,Wunderground v.1.15,2013-12-15 16:30:00,
2013-12-15 08:35:00,48.2,36.6,30.38,SSE,153,0.0,0.0,64,0.00,,,0.00,Wunderground v.1.15,2013-12-15 16:35:00,
2013-12-15 08:40:00,48.4,37.2,30.38,SSE,153,0.0,0.0,65,0.00,,,0.00,Wunderground v.1.15,2013-12-15 16:40:00,
2013-12-15 08:50:00,48.4,37.2,30.38,SSE,153,0.0,1.0,65,0.00,,,0.00,Wunderground v.1.15,2013-12-15 16:50:00,
2013-12-15 08:55:00,47.9,36.7,30.38,SSE,153,0.0,1.0,65,0.00,,,0.00,Wunderground v.1.15,2013-12-15 16:55:00,
2013-12-15 09:00:00,47.8,37.0,30.38,SSE,153,0.0,1.0,66,0.00,,,0.00,Wunderground v.1.15,2013-12-15 17:00:00,
2013-12-15 09:05:00,47.9,37.1,30.39,SSE,153,0.0,1.0,66,0.00,,,0.00,Wunderground v.1.15,2013-12-15 17:05:00,
2013-12-15 09:10:00,48.3,37.1,30.39,SSE,153,0.0,1.0,65,0.00,,,0.00,Wunderground v.1.15,2013-12-15 17:10:00,
2013-12-15 09:15:00,48.5,36.9,30.39,SSE,153,0.0,1.0,64,0.00,,,0.00,Wunderground v.1.15,2013-12-15 17:15:00,
2013-12-15 09:25:00,48.3,36.7,30.39,SSE,153,1.0,2.0,64,0.00,,,0.00,Wunderground v.1.15,2013-12-15 17:25:00,
2013-12-15 09:30:00,47.8,36.6,30.39,SSE,153,2.0,2.0,65,0.00,,,0.00,Wunderground v.1.15,2013-12-15 17:30:00,
2013-12-15 09:35:00,48.1,36.5,30.39,SSE,153,1.0,3.0,64,0.00,,,0.00,Wunderground v.1.15,2013-12-15 17:35:00,
2013-12-15 09:40:00,48.3,36.7,30.39,SSE,153,1.0,4.0,64,0.00,,,0.00,Wunderground v.1.15,2013-12-15 17:40:00,
2013-12-15 09:50:00,48.9,36.9,30.39,SSE,153,2.0,3.0,63,0.00,,,0.00,Wunderground v.1.15,2013-12-15 17:50:00,
2013-12-15 09:55:00,49.4,36.9,30.39,SSE,153,1.0,4.0,62,0.00,,,0.00,Wunderground v.1.15,2013-12-15 17:55:00,
2013-12-15 10:00:00,49.2,36.7,30.39,SSE,153,2.0,5.0,62,0.00,,,0.00,Wunderground v.1.15,2013-12-15 18:00:00,
2013-12-15 10:05:00,49.5,37.4,30.39,SSE,153,2.0,5.0,63,0.00,,,0.00,Wunderground v.1.15,2013-12-15 18:05:00,
2013-12-15 10:10:00,50.4,37.9,30.39,SSE,153,1.0,3.0,62,0.00,,,0.00,Wunderground v.1.15,2013-12-15 18:10:00,
2013-12-15 10:15:00,51.0,38.0,30.38,SSE,153,1.0,5.0,61,0.00,,,0.00,Wunderground v.1.15,2013-12-15 18:15:00,
2013-12-15 10:20:00,51.5,37.6,30.38,SSE,153,2.0,2.0,59,0.00,,,0.00,Wunderground v.1.15,2013-12-15 18:20:00,
2013-12-15 10:25:00,52.2,37.9,30.38,SE,125,2.0,4.0,58,0.00,,,0.00,Wunderground v.1.15,2013-12-15 18:25:00,
2013-12-15 10:30:00,53.0,38.2,30.38,SE,136,2.0,2.0,57,0.00,,,0.00,Wunderground v.1.15,2013-12-15 18:30:00,
2013-12-15 10:35:00,53.5,37.7,30.38,SE,125,3.0,3.0,55,0.00,,,0.00,Wunderground v.1.15,2013-12-15 18:35:00,
2013-12-15 10:45:00,54.3,37.5,30.37,ESE,119,2.0,8.0,53,0.00,,,0.00,Wunderground v.1.15,2013-12-15 18:45:00,
2013-12-15 10:50:00,54.4,37.6,30.37,ESE,105,3.0,3.0,53,0.00,,,0.00,Wunderground v.1.15,2013-12-15 18:50:00,
2013-12-15 10:55:00,54.8,37.0,30.37,SE,126,3.0,8.0,51,0.00,,,0.00,Wunderground v.1.15,2013-12-15 18:55:00,
2013-12-15 11:00:00,54.7,36.9,30.37,ENE,78,3.0,11.0,51,0.00,,,0.00,Wunderground v.1.15,2013-12-15 19:00:00,
2013-12-15 11:05:00,55.0,37.2,30.37,East,101,3.0,11.0,51,0.00,,,0.00,Wunderground v.1.15,2013-12-15 19:05:00,
2013-12-15 11:10:00,55.5,37.1,30.36,ENE,74,2.0,2.0,50,0.00,,,0.00,Wunderground v.1.15,2013-12-15 19:10:00,
2013-12-15 11:15:00,55.8,36.4,30.36,East,90,2.0,6.0,48,0.00,,,0.00,Wunderground v.1.15,2013-12-15 19:15:00,
2013-12-15 11:20:00,55.5,36.1,30.36,East,80,3.0,7.0,48,0.00,,,0.00,Wunderground v.1.15,2013-12-15 19:20:00,
2013-12-15 11:30:00,55.7,36.8,30.36,ESE,107,3.0,3.0,49,0.00,,,0.00,Wunderground v.1.15,2013-12-15 19:30:00,
2013-12-15 11:35:00,56.3,36.8,30.35,SE,135,2.0,5.0,48,0.00,,,0.00,Wunderground v.1.15,2013-12-15 19:35:00,
2013-12-15 11:40:00,56.6,36.6,30.35,East,96,2.0,2.0,47,0.00,,,0.00,Wunderground v.1.15,2013-12-15 19:40:00,
2013-12-15 11:45:00,56.6,37.1,30.35,SE,137,2.0,7.0,48,0.00,,,0.00,Wunderground v.1.15,2013-12-15 19:45:00,
2013-12-15 11:50:00,56.7,37.2,30.34,SE,132,2.0,6.0,48,0.00,,,0.00,Wunderground v.1.15,2013-12-15 19:50:00,
2013-12-15 11:55:00,57.1,37.6,30.34,SSE,150,2.0,8.0,48,0.00,,,0.00,Wunderground v.1.15,2013-12-15 19:55:00,
2013-12-15 12:00:00,56.8,36.8,30.34,SE,134,2.0,2.0,47,0.00,,,0.00,Wunderground v.1.15,2013-12-15 20:00:00,
2013-12-15 12:05:00,57.0,37.5,30.34,SSE,152,3.0,3.0,48,0.00,,,0.00,Wunderground v.1.15,2013-12-15 20:05:00,
2013-12-15 12:10:00,57.0,37.5,30.34,SE,136,3.0,3.0,48,0.00,,,0.00,Wunderground v.1.15,2013-12-15 20:10:00,
2013-12-15 12:15:00,57.2,37.1,30.34,East,89,2.0,6.0,47,0.00,,,0.00,Wunderground v.1.15,2013-12-15 20:15:00,
2013-12-15 12:20:00,57.4,37.9,30.34,SE,143,2.0,8.0,48,0.00,,,0.00,Wunderground v.1.15,2013-12-15 20:20:00,
2013-12-15 12:30:00,58.0,37.3,30.33,East,88,1.0,1.0,46,0.00,,,0.00,Wunderground v.1.15,2013-12-15 20:30:00,
2013-12-15 12:40:00,58.2,37.5,30.33,SSE,159,1.0,1.0,46,0.00,,,0.00,Wunderground v.1.15,2013-12-15 20:40:00,
2013-12-15 12:50:00,58.3,36.5,30.33,SSE,161,2.0,7.0,44,0.00,,,0.00,Wunderground v.1.15,2013-12-15 20:50:00,
2013-12-15 12:55:00,58.1,36.9,30.32,SE,140,3.0,8.0,45,0.00,,,0.00,Wunderground v.1.15,2013-12-15 20:55:00,
2013-12-15 13:00:00,58.3,37.0,30.32,ENE,77,3.0,3.0,45,0.00,,,0.00,Wunderground v.1.15,2013-12-15 21:00:00,
2013-12-15 13:05:00,58.9,37.0,30.32,SE,126,2.0,6.0,44,0.00,,,0.00,Wunderground v.1.15,2013-12-15 21:05:00,
2013-12-15 13:10:00,59.5,37.0,30.32,East,100,2.0,6.0,43,0.00,,,0.00,Wunderground v.1.15,2013-12-15 21:10:00,
2013-12-15 13:20:00,59.6,35.9,30.31,ESE,115,2.0,6.0,41,0.00,,,0.00,Wunderground v.1.15,2013-12-15 21:20:00,
2013-12-15 13:25:00,59.5,35.8,30.31,East,94,2.0,6.0,41,0.00,,,0.00,Wunderground v.1.15,2013-12-15 21:25:00,
2013-12-15 13:30:00,59.8,35.4,30.31,ESE,115,1.0,3.0,40,0.00,,,0.00,Wunderground v.1.15,2013-12-15 21:30:00,
2013-12-15 13:35:00,60.1,35.7,30.31,SE,136,1.0,4.0,40,0.00,,,0.00,Wunderground v.1.15,2013-12-15 21:35:00,
2013-12-15 13:40:00,60.1,35.7,30.31,East,100,1.0,1.0,40,0.00,,,0.00,Wunderground v.1.15,2013-12-15 21:40:00,
2013-12-15 13:45:00,60.0,35.0,30.31,SE,133,2.0,2.0,39,0.00,,,0.00,Wunderground v.1.15,2013-12-15 21:45:00,
2013-12-15 13:50:00,59.9,34.9,30.30,ESE,121,2.0,2.0,39,0.00,,,0.00,Wunderground v.1.15,2013-12-15 21:50:00,
2013-12-15 13:55:00,60.0,35.6,30.30,East,86,2.0,5.0,40,0.00,,,0.00,Wunderground v.1.15,2013-12-15 21:55:00,
2013-12-15 14:05:00,60.2,35.1,30.30,East,86,1.0,6.0,39,0.00,,,0.00,Wunderground v.1.15,2013-12-15 22:05:00,
2013-12-15 14:10:00,60.3,34.6,30.30,ESE,119,1.0,1.0,38,0.00,,,0.00,Wunderground v.1.15,2013-12-15 22:10:00,
2013-12-15 14:15:00,60.4,34.0,30.30,East,81,2.0,3.0,37,0.00,,,0.00,Wunderground v.1.15,2013-12-15 22:15:00,
2013-12-15 14:20:00,60.4,34.0,30.30,SE,128,1.0,1.0,37,0.00,,,0.00,Wunderground v.1.15,2013-12-15 22:20:00,
2013-12-15 14:25:00,60.4,34.7,30.30,ENE,78,2.0,4.0,38,0.00,,,0.00,Wunderground v.1.15,2013-12-15 22:25:00,
2013-12-15 14:35:00,60.0,34.3,30.30,SE,143,2.0,7.0,38,0.00,,,0.00,Wunderground v.1.15,2013-12-15 22:35:00,
2013-12-15 14:40:00,59.9,34.2,30.30,ESE,103,1.0,3.0,38,0.00,,,0.00,Wunderground v.1.15,2013-12-15 22:40:00,
2013-12-15 14:45:00,59.9,34.9,30.29,East,94,1.0,7.0,39,0.00,,,0.00,Wunderground v.1.15,2013-12-15 22:45:00,
2013-12-15 14:55:00,59.6,34.6,30.29,ESE,103,1.0,5.0,39,0.00,,,0.00,Wunderground v.1.15,2013-12-15 22:55:00,
2013-12-15 15:00:00,59.6,34.6,30.29,ENE,74,1.0,1.0,39,0.00,,,0.00,Wunderground v.1.15,2013-12-15 23:00:00,
2013-12-15 15:05:00,59.6,34.6,30.29,East,88,1.0,3.0,39,0.00,,,0.00,Wunderground v.1.15,2013-12-15 23:05:00,
2013-12-15 15:15:00,59.4,33.8,30.29,East,95,1.0,7.0,38,0.00,,,0.00,Wunderground v.1.15,2013-12-15 23:15:00,
2013-12-15 15:20:00,59.2,34.2,30.29,ESE,102,1.0,1.0,39,0.00,,,0.00,Wunderground v.1.15,2013-12-15 23:20:00,
2013-12-15 15:25:00,59.1,34.1,30.29,ESE,111,0.0,2.0,39,0.00,,,0.00,Wunderground v.1.15,2013-12-15 23:25:00,
2013-12-15 15:30:00,59.0,34.1,30.29,ESE,109,0.0,2.0,39,0.00,,,0.00,Wunderground v.1.15,2013-12-15 23:30:00,
2013-12-15 15:40:00,58.8,33.2,30.29,ESE,117,0.0,3.0,38,0.00,,,0.00,Wunderground v.1.15,2013-12-15 23:40:00,
2013-12-15 15:45:00,58.6,33.0,30.29,ESE,115,0.0,3.0,38,0.00,,,0.00,Wunderground v.1.15,2013-12-15 23:45:00,
2013-12-15 15:50:00,58.5,33.6,30.29,ESE,112,0.0,2.0,39,0.00,,,0.00,Wunderground v.1.15,2013-12-15 23:50:00,
2013-12-15 15:55:00,58.3,33.4,30.28,ESE,112,0.0,2.0,39,0.00,,,0.00,Wunderground v.1.15,2013-12-15 23:55:00,
2013-12-15 16:00:00,58.0,33.2,30.28,ESE,112,0.0,2.0,39,0.00,,,0.00,Wunderground v.1.15,2013-12-16 00:00:00,
2013-12-15 16:10:00,57.6,34.1,30.28,ESE,112,0.0,0.0,41,0.00,,,0.00,Wunderground v.1.15,2013-12-16 00:10:00,
2013-12-15 16:15:00,57.2,34.3,30.28,ESE,112,0.0,0.0,42,0.00,,,0.00,Wunderground v.1.15,2013-12-16 00:15:00,
2013-12-15 16:20:00,56.8,34.5,30.28,ESE,112,0.0,0.0,43,0.00,,,0.00,Wunderground v.1.15,2013-12-16 00:20:00,
2013-12-15 16:25:00,56.4,34.7,30.28,ESE,112,0.0,0.0,44,0.00,,,0.00,Wunderground v.1.15,2013-12-16 00:25:00,
2013-12-15 16:35:00,55.6,32.8,30.28,ESE,112,0.0,0.0,42,0.00,,,0.00,Wunderground v.1.15,2013-12-16 00:35:00,
2013-12-15 16:40:00,55.4,32.7,30.28,ESE,112,0.0,0.0,42,0.00,,,0.00,Wunderground v.1.15,2013-12-16 00:40:00,
2013-12-15 16:45:00,55.3,32.6,30.28,ESE,112,0.0,1.0,42,0.00,,,0.00,Wunderground v.1.15,2013-12-16 00:45:00,
2013-12-15 16:50:00,55.0,32.9,30.28,ESE,112,0.0,0.0,43,0.00,,,0.00,Wunderground v.1.15,2013-12-16 00:50:00,
2013-12-15 16:55:00,54.7,32.6,30.28,ESE,112,0.0,1.0,43,0.00,,,0.00,Wunderground v.1.15,2013-12-16 00:55:00,
2013-12-15 17:00:00,54.0,32.6,30.28,ESE,112,0.0,0.0,44,0.00,,,0.00,Wunderground v.1.15,2013-12-16 01:00:00,
2013-12-15 17:10:00,52.9,32.7,30.28,ESE,112,0.0,1.0,46,0.00,,,0.00,Wunderground v.1.15,2013-12-16 01:10:00,
2013-12-15 17:15:00,52.8,32.6,30.28,ESE,112,0.0,1.0,46,0.00,,,0.00,Wunderground v.1.15,2013-12-16 01:15:00,
2013-12-15 17:20:00,52.7,32.5,30.28,ESE,112,0.0,1.0,46,0.00,,,0.00,Wunderground v.1.15,2013-12-16 01:20:00,
2013-12-15 17:25:00,52.4,33.3,30.28,ESE,112,0.0,1.0,48,0.00,,,0.00,Wunderground v.1.15,2013-12-16 01:25:00,
2013-12-15 17:35:00,51.5,33.0,30.28,ESE,112,0.0,1.0,49,0.00,,,0.00,Wunderground v.1.15,2013-12-16 01:35:00,
2013-12-15 17:40:00,51.2,32.7,30.28,ESE,112,0.0,1.0,49,0.00,,,0.00,Wunderground v.1.15,2013-12-16 01:40:00,
2013-12-15 17:45:00,51.1,31.6,30.28,ESE,112,0.0,1.0,47,0.00,,,0.00,Wunderground v.1.15,2013-12-16 01:45:00,
2013-12-15 17:50:00,51.4,31.3,30.28,ESE,112,0.0,0.0,46,0.00,,,0.00,Wunderground v.1.15,2013-12-16 01:50:00,
2013-12-15 17:55:00,51.6,31.5,30.28,ESE,112,0.0,1.0,46,0.00,,,0.00,Wunderground v.1.15,2013-12-16 01:55:00,
2013-12-15 18:05:00,52.3,31.0,30.27,ESE,112,0.0,1.0,44,0.00,,,0.00,Wunderground v.1.15,2013-12-16 02:05:00,
2013-12-15 18:10:00,52.4,30.5,30.27,ESE,112,0.0,0.0,43,0.00,,,0.00,Wunderground v.1.15,2013-12-16 02:10:00,
2013-12-15 18:15:00,52.3,31.0,30.27,ESE,112,0.0,0.0,44,0.00,,,0.00,Wunderground v.1.15,2013-12-16 02:15:00,
2013-12-15 18:25:00,52.0,31.3,30.27,ESE,112,0.0,0.0,45,0.00,,,0.00,Wunderground v.1.15,2013-12-16 02:25:00,
2013-12-15 18:30:00,51.7,31.0,30.27,ESE,112,0.0,0.0,45,0.00,,,0.00,Wunderground v.1.15,2013-12-16 02:30:00,
2013-12-15 18:40:00,51.5,30.8,30.28,ESE,112,0.0,1.0,45,0.00,,,0.00,Wunderground v.1.15,2013-12-16 02:40:00,
2013-12-15 18:45:00,51.6,30.9,30.28,ESE,112,0.0,1.0,45,0.00,,,0.00,Wunderground v.1.15,2013-12-16 02:45:00,
2013-12-15 18:50:00,51.7,31.0,30.28,ESE,112,0.0,1.0,45,0.00,,,0.00,Wunderground v.1.15,2013-12-16 02:50:00,
2013-12-15 18:55:00,51.8,30.6,30.28,ESE,112,0.0,1.0,44,0.00,,,0.00,Wunderground v.1.15,2013-12-16 02:55:00,
2013-12-15 19:00:00,51.7,30.5,30.28,ESE,112,0.0,1.0,44,0.00,,,0.00,Wunderground v.1.15,2013-12-16 03:00:00,
2013-12-15 19:10:00,51.0,30.4,30.28,ESE,112,0.0,1.0,45,0.00,,,0.00,Wunderground v.1.15,2013-12-16 03:10:00,
2013-12-15 19:15:00,50.9,30.3,30.28,ESE,111,0.0,1.0,45,0.00,,,0.00,Wunderground v.1.15,2013-12-16 03:15:00,
2013-12-15 19:20:00,51.0,30.4,30.28,NE,51,0.0,2.0,45,0.00,,,0.00,Wunderground v.1.15,2013-12-16 03:20:00,
2013-12-15 19:25:00,50.9,30.3,30.28,NE,51,0.0,2.0,45,0.00,,,0.00,Wunderground v.1.15,2013-12-16 03:25:00,
2013-12-15 19:35:00,51.0,30.4,30.28,NE,51,0.0,1.0,45,0.00,,,0.00,Wunderground v.1.15,2013-12-16 03:35:00,
2013-12-15 19:40:00,50.9,30.3,30.28,NE,51,0.0,1.0,45,0.00,,,0.00,Wunderground v.1.15,2013-12-16 03:40:00,
2013-12-15 19:45:00,51.0,30.4,30.28,NE,51,0.0,1.0,45,0.00,,,0.00,Wunderground v.1.15,2013-12-16 03:45:00,
2013-12-15 19:55:00,50.7,30.1,30.28,NE,51,0.0,1.0,45,0.00,,,0.00,Wunderground v.1.15,2013-12-16 03:55:00,
2013-12-15 20:00:00,50.5,29.9,30.28,NE,51,0.0,1.0,45,0.00,,,0.00,Wunderground v.1.15,2013-12-16 04:00:00,
2013-12-15 20:05:00,50.4,29.8,30.29,NE,51,0.0,1.0,45,0.00,,,0.00,Wunderground v.1.15,2013-12-16 04:05:00,
2013-12-15 20:10:00,50.4,29.8,30.29,NE,51,0.0,1.0,45,0.00,,,0.00,Wunderground v.1.15,2013-12-16 04:10:00,
2013-12-15 20:15:00,50.3,29.7,30.29,NE,51,0.0,1.0,45,0.00,,,0.00,Wunderground v.1.15,2013-12-16 04:15:00,
2013-12-15 20:20:00,50.3,30.3,30.29,NE,51,0.0,1.0,46,0.00,,,0.00,Wunderground v.1.15,2013-12-16 04:20:00,
2013-12-15 20:25:00,50.3,30.8,30.29,NE,51,0.0,1.0,47,0.00,,,0.00,Wunderground v.1.15,2013-12-16 04:25:00,
2013-12-15 20:35:00,50.3,30.3,30.29,NE,51,0.0,0.0,46,0.00,,,0.00,Wunderground v.1.15,2013-12-16 04:35:00,
2013-12-15 20:40:00,50.2,29.7,30.28,NE,51,0.0,0.0,45,0.00,,,0.00,Wunderground v.1.15,2013-12-16 04:40:00,
2013-12-15 20:50:00,49.9,30.5,30.29,NE,51,0.0,0.0,47,0.00,,,0.00,Wunderground v.1.15,2013-12-16 04:50:00,
2013-12-15 20:55:00,49.5,30.6,30.28,NE,51,0.0,1.0,48,0.00,,,0.00,Wunderground v.1.15,2013-12-16 04:55:00,
2013-12-15 21:00:00,49.3,29.9,30.28,NE,51,0.0,0.0,47,0.00,,,0.00,Wunderground v.1.15,2013-12-16 05:00:00,
2013-12-15 21:05:00,49.2,30.3,30.29,NE,51,0.0,0.0,48,0.00,,,0.00,Wunderground v.1.15,2013-12-16 05:05:00,
2013-12-15 21:10:00,49.3,30.9,30.29,NE,51,0.0,1.0,49,0.00,,,0.00,Wunderground v.1.15,2013-12-16 05:10:00,
2013-12-15 21:15:00,49.2,30.3,30.29,NE,51,0.0,1.0,48,0.00,,,0.00,Wunderground v.1.15,2013-12-16 05:15:00,
2013-12-15 21:20:00,49.1,30.2,30.29,NE,51,0.0,1.0,48,0.00,,,0.00,Wunderground v.1.15,2013-12-16 05:20:00,
2013-12-15 21:25:00,49.1,30.2,30.29,NE,51,0.0,1.0,48,0.00,,,0.00,Wunderground v.1.15,2013-12-16 05:25:00,
2013-12-15 21:30:00,49.1,30.2,30.28,NE,51,0.0,1.0,48,0.00,,,0.00,Wunderground v.1.15,2013-12-16 05:30:00,
2013-12-15 21:35:00,49.2,30.3,30.28,NE,51,0.0,1.0,48,0.00,,,0.00,Wunderground v.1.15,2013-12-16 05:35:00,
2013-12-15 21:45:00,49.1,30.2,30.28,NE,51,0.0,1.0,48,0.00,,,0.00,Wunderground v.1.15,2013-12-16 05:45:00,
2013-12-15 21:50:00,49.0,30.1,30.29,NE,51,0.0,0.0,48,0.00,,,0.00,Wunderground v.1.15,2013-12-16 05:50:00,
2013-12-15 22:00:00,49.2,30.3,30.29,NE,51,0.0,1.0,48,0.00,,,0.00,Wunderground v.1.15,2013-12-16 06:00:00,
2013-12-15 22:10:00,49.5,30.1,30.29,NE,51,0.0,1.0,47,0.00,,,0.00,Wunderground v.1.15,2013-12-16 06:10:00,
2013-12-15 22:15:00,49.5,29.6,30.29,NE,51,0.0,1.0,46,0.00,,,0.00,Wunderground v.1.15,2013-12-16 06:15:00,
2013-12-15 22:20:00,49.5,30.1,30.29,NE,51,0.0,0.0,47,0.00,,,0.00,Wunderground v.1.15,2013-12-16 06:20:00,
2013-12-15 22:30:00,49.4,29.5,30.29,NE,51,0.0,0.0,46,0.00,,,0.00,Wunderground v.1.15,2013-12-16 06:30:00,
2013-12-15 22:35:00,49.5,29.6,30.29,NE,51,0.0,0.0,46,0.00,,,0.00,Wunderground v.1.15,2013-12-16 06:35:00,
2013-12-15 22:40:00,49.4,30.0,30.29,NE,51,0.0,0.0,47,0.00,,,0.00,Wunderground v.1.15,2013-12-16 06:40:00,
2013-12-15 22:50:00,49.4,30.0,30.29,NE,51,0.0,0.0,47,0.00,,,0.00,Wunderground v.1.15,2013-12-16 06:50:00,
2013-12-15 22:55:00,49.4,30.0,30.29,NE,51,0.0,0.0,47,0.00,,,0.00,Wunderground v.1.15,2013-12-16 06:55:00,
2013-12-15 23:05:00,49.4,30.5,30.29,NE,51,0.0,1.0,48,0.00,,,0.00,Wunderground v.1.15,2013-12-16 07:05:00,
2013-12-15 23:10:00,49.5,30.1,30.29,NE,51,0.0,1.0,47,0.00,,,0.00,Wunderground v.1.15,2013-12-16 07:10:00,
2013-12-15 23:15:00,49.5,30.1,30.28,NE,51,0.0,1.0,47,0.00,,,0.00,Wunderground v.1.15,2013-12-16 07:15:00,
2013-12-15 23:20:00,49.6,29.6,30.28,NE,51,0.0,0.0,46,0.00,,,0.00,Wunderground v.1.15,2013-12-16 07:20:00,
2013-12-15 23:25:00,49.8,30.4,30.28,NE,51,0.0,0.0,47,0.00,,,0.00,Wunderground v.1.15,2013-12-16 07:25:00,
2013-12-15 23:35:00,49.7,30.3,30.28,NE,51,0.0,1.0,47,0.00,,,0.00,Wunderground v.1.15,2013-12-16 07:35:00,
2013-12-15 23:40:00,49.8,30.4,30.28,NE,51,0.0,1.0,47,0.00,,,0.00,Wunderground v.1.15,2013-12-16 07:40:00,
2013-12-15 23:45:00,49.9,30.5,30.28,NE,51,0.0,1.0,47,0.00,,,0.00,Wunderground v.1.15,2013-12-16 07:45:00,
2013-12-15 23:50:00,49.9,30.5,30.29,NE,51,0.0,1.0,47,0.00,,,0.00,Wunderground v.1.15,2013-12-16 07:50:00,